Home   Weather   Fort Lauderdale   Past weeks

Flag for USA Past Weather in Fort Lauderdale, Florida, USA — Yesterday and Last 2 Weeks

Now
81 °F

Partly cloudy.


Feels Like: 87 °F
Forecast: 81 / 85 °F
Wind: 16 mph from Southeast

Location: Fort Lauderdale / Hollywood International Airport

Current Time: Oct 22, 2017 at 8:04:04 am

Latest Report: Oct 22, 2017 at 6:53 am


Visibility: 10 mi

Pressure: 30.05 "Hg

Humidity: 82%

Dew Point: 75 °F

Location of Fort LauderdaleLocation

Past Weather in Fort Lauderdale — Graph

°F

Fort Lauderdale Temperature Yesterday

Maximum temperature yesterday: 85 °F (at 12:53 pm)
Minimum temperature yesterday: 77 °F (at 12:53 am)
Average temperature yesterday: 81 °F

High & Low Weather Summary for the Past Weeks

 TemperatureHumidityPressure
High92 °F (Oct 9, 12:53 pm)100% (Oct 12, 7:53 am)30.09 "Hg (Oct 12, 7:53 am)
Low74 °F (Oct 19, 1:53 am)61% (Oct 9, 11:53 am)29.83 "Hg (Oct 12, 2:36 pm)
Average82 °F82%29.97 "Hg
* Reported Oct 7 6:53 am — Oct 22 6:53 am, Fort Lauderdale. Weather by CustomWeather, © 2017

Note: Actual official high and low records may vary slightly from our data, if they occured in-between our weather recording intervals... More about our weather records

Advertising

Fort Lauderdale Weather History for the Previous 24 Hours

Scroll right to see more
 ConditionsComfort  
Time TempWeatherWind HumidityBarometerVisibility
6:53 am
Sun, Oct 22
81 °FPartly cloudy.16 mph82%30.05 "Hg10 mi
5:53 am81 °FPassing clouds.18 mph82%30.03 "Hg10 mi
4:53 am81 °FPassing clouds.17 mph85%30.02 "Hg10 mi
3:53 am82 °FPassing clouds.15 mph79%30.02 "Hg10 mi
2:53 am82 °FPartly cloudy.15 mph79%30.03 "Hg10 mi
1:53 am81 °FPartly cloudy.15 mph85%30.04 "Hg10 mi
12:53 am81 °FPartly cloudy.17 mph82%30.06 "Hg10 mi
11:53 pm
Sat, Oct 21
81 °FPartly cloudy.16 mph88%30.07 "Hg10 mi
10:53 pm80 °FMostly cloudy.12 mph90%30.09 "Hg10 mi
9:53 pm82 °FOvercast.17 mph79%30.07 "Hg10 mi
8:53 pm81 °FMostly cloudy.13 mph88%30.06 "Hg10 mi
7:53 pm81 °FPartly cloudy.18 mph88%30.05 "Hg10 mi
6:53 pm82 °FPartly cloudy.13 mph85%30.04 "Hg10 mi
6:44 pm82 °FMore clouds than sun.18 mph85%30.04 "Hg10 mi
5:53 pm82 °FOvercast.18 mph82%30.03 "Hg10 mi
4:53 pm84 °FBroken clouds.17 mph77%30.02 "Hg10 mi
4:09 pm82 °FLight rain. Broken clouds.21 mph85%30.03 "Hg10 mi
4:01 pm83 °FPartly sunny.21 mph77%30.03 "Hg10 mi
2:53 pm84 °FBroken clouds.18 mph77%30.03 "Hg10 mi
1:53 pm84 °FScattered clouds.23 mph77%30.05 "Hg10 mi
12:53 pm85 °FBroken clouds.22 mph72%30.07 "Hg10 mi
11:53 am84 °FBroken clouds.18 mph80%30.08 "Hg10 mi
10:53 am82 °FMostly cloudy.17 mph82%30.06 "Hg10 mi
10:24 am82 °FMostly cloudy.16 mph82%30.07 "Hg10 mi
9:53 am82 °FBroken clouds.23 mph77%30.06 "Hg10 mi
8:53 am82 °FBroken clouds.17 mph77%30.04 "Hg10 mi
8:16 am81 °FMore clouds than sun.18 mph82%30.02 "Hg10 mi
Weather by CustomWeather, © 2017

See weather overview